User: anonymous   Login
Location: Krasnoyarskiy Pitomnik
(51.1333°N, 71.6167°E)
Time: 02:30:29
(UTC+00:00)
Language:

Landsat 5 - Orbit

View from above orbital plane
View from above orbital plane
View from above satellite
View from above satellite

Ground track
Ground track

The orbit data is extracted from the following two-line orbital elements,

1 14780U 84021A   22018.51584022  .00000633  00000-0  63116-4 0  9998
2 14780  98.2053 210.0189 0090412  60.3486 300.6698 14.92535297550282
Epoch (UTC): 18 January 2022 12:22:48
Eccentricity: 0.0090412
inclination: 98.2053°
perigee height: 527 km
apogee height: 653 km
right ascension of ascending node: 210.0189°
argument of perigee: 60.3486°
revolutions per day: 14.92535297
mean anomaly at epoch: 300.6698°
orbit number at epoch: 55028

The dashed part of the orbit path shows where the satellite is in the earth's shadow,  

DLR